Soldotna, AK

9:10 AM AKDT on October 19, 2017 (GMT -0800)
Soldotna

Weather History for PASX - May, 2012

Change the Weather History Date:

Wednesday, May 2, 2012

  Actual Average Record
Temperature  
Mean Temperature 29 °F -  
Max Temperature 41 °F 48 °F 69 °F (2014)
Min Temperature 17 °F 32 °F 17 °F (2012)
Degree Days  
Heating Degree Days 36    
Moisture  
Dew Point 12 °F    
Average Humidity 48    
Maximum Humidity 80    
Minimum Humidity 29    
Precipitation  
Precipitation 0.00 in - - ()
Sea Level Pressure  
Sea Level Pressure 29.75 in    
Wind  
Wind Speed 3 mph (NW)    
Max Wind Speed 18 mph    
Max Gust Speed 23 mph    
Visibility 10 miles    
Events      
Averages and records for this station are not official NWS values.
T = Trace of Precipitation, MM = Missing Value Source: NWS Daily Summary

Daily Weather History Graph

Daily Weather History Graph

Search for Another Location

Airport or City:

Trip Planner

Search our weather history database for the weather conditions in past years. The results will help you decide how hot, cold, wet, or windy it might be!

Date:

Astronomy

May. 02, 2012 Rise Set
Actual Time 5:54 AM AKDT 10:09 PM AKDT
Civil Twilight 4:59 AM AKDT 11:05 PM AKDT
Nautical Twilight 3:27 AM AKDT 12:40 AM AKDT
Astronomical Twilight Sun does not rise Sun does not rise
Moon 5:42 PM AKDT (5/2) 4:31 AM AKDT (5/2)
Length of Visible Light 18h 06m
Length of Day
16h 14m
Waxing Gibbous, 84% of the Moon is Illuminated
May 2
Waxing Gibbous
May 5
Full
May 12
Last Quarter
May 20
New
May 28
First Quarter

Hourly Weather History & Observations

Time (AKDT) Temp. Windchill Dew Point Humidity Pressure Visibility Wind Dir Wind Speed Gust Speed Precip Events Conditions
12:16 AM 26.6 °F - 12.2 °F 55% 29.73 in - Calm Calm - N/A   Clear
12:36 AM 26.6 °F - 12.2 °F 55% 29.73 in 10.0 mi Calm Calm - N/A   Clear
12:56 AM 26.6 °F - 12.2 °F 55% 29.74 in 10.0 mi Calm Calm - N/A   Clear
1:16 AM 26.6 °F - 12.2 °F 55% 29.74 in - Calm Calm - N/A   Clear
1:36 AM 24.8 °F - 15.8 °F 69% 29.74 in - Calm Calm - N/A   Clear
1:56 AM 23.0 °F - 12.2 °F 63% 29.75 in 10.0 mi Calm Calm - N/A   Clear
2:16 AM 23.0 °F - 14.0 °F 68% 29.75 in 10.0 mi Calm Calm - N/A   Clear
2:36 AM 21.2 °F - 12.2 °F 68% 29.75 in 10.0 mi Calm Calm - N/A   Clear
2:56 AM 21.2 °F - 12.2 °F 68% 29.75 in 10.0 mi Calm Calm - N/A   Clear
3:16 AM 21.2 °F - 12.2 °F 68% 29.76 in 10.0 mi Calm Calm - N/A   Clear
3:36 AM 19.4 °F - 12.2 °F 74% 29.76 in 10.0 mi Calm Calm - N/A   Clear
3:56 AM 19.4 °F - 12.2 °F 74% 29.76 in 10.0 mi Calm Calm - N/A   Clear
4:16 AM 19.4 °F - 12.2 °F 74% 29.76 in 10.0 mi Calm Calm - N/A   Clear
4:36 AM 19.4 °F - 10.4 °F 68% 29.76 in 10.0 mi Calm Calm - N/A   Clear
4:56 AM 17.6 °F - 10.4 °F 73% 29.76 in 10.0 mi Calm Calm - N/A   Clear
5:16 AM 19.4 °F - 10.4 °F 68% 29.76 in 10.0 mi Calm Calm - N/A   Clear
5:36 AM 19.4 °F - 12.2 °F 74% 29.76 in 10.0 mi Calm Calm - N/A   Clear
5:56 AM 19.4 °F - 12.2 °F 74% 29.76 in - Calm Calm - N/A   Clear
6:16 AM 19.4 °F - 12.2 °F 74% 29.76 in - Calm Calm - N/A   Clear
6:36 AM 19.4 °F - 12.2 °F 74% 29.76 in 10.0 mi Calm Calm - N/A   Clear
6:56 AM 19.4 °F - 12.2 °F 74% 29.77 in 10.0 mi Calm Calm - N/A   Clear
7:16 AM 23.0 °F - 17.6 °F 80% 29.77 in 10.0 mi Calm Calm - N/A   Clear
7:36 AM 24.8 °F - 15.8 °F 69% 29.77 in 10.0 mi Calm Calm - N/A   Clear
7:56 AM 26.6 °F - 15.8 °F 64% 29.77 in - Calm Calm - N/A   Clear
8:16 AM 28.4 °F 23.3 °F 15.8 °F 59% 29.77 in - ESE 4.6 mph - N/A   Clear
8:36 AM 30.2 °F 21.9 °F 12.2 °F 47% 29.78 in 10.0 mi ESE 9.2 mph - N/A   Clear
8:56 AM 30.2 °F 23.4 °F 12.2 °F 47% 29.78 in 10.0 mi East 6.9 mph - N/A   Clear
9:16 AM 32.0 °F 27.5 °F 12.2 °F 44% 29.78 in 10.0 mi East 4.6 mph - N/A   Clear
9:36 AM 33.8 °F 28.6 °F 10.4 °F 38% 29.78 in 10.0 mi East 5.8 mph - N/A   Clear
9:56 AM 33.8 °F 29.6 °F 10.4 °F 38% 29.78 in 10.0 mi ESE 4.6 mph - N/A   Clear
10:16 AM 33.8 °F 28.6 °F 10.4 °F 38% 29.77 in 10.0 mi ESE 5.8 mph - N/A   Clear
10:36 AM 33.8 °F 28.6 °F 8.6 °F 35% 29.77 in 10.0 mi NE 5.8 mph - N/A   Clear
10:56 AM 35.6 °F 31.7 °F 8.6 °F 33% 29.77 in 10.0 mi North 4.6 mph - N/A   Clear
11:16 AM 35.6 °F 29.9 °F 10.4 °F 35% 29.77 in 10.0 mi North 6.9 mph - N/A   Clear
11:36 AM 35.6 °F 32.8 °F 10.4 °F 35% 29.76 in 10.0 mi NW 3.5 mph - N/A   Clear
11:56 AM 35.6 °F - 8.6 °F 33% 29.76 in 10.0 mi Calm Calm - N/A   Clear
12:16 PM 35.6 °F 30.7 °F 10.4 °F 35% 29.75 in 10.0 mi ENE 5.8 mph - N/A   Clear
12:36 PM 37.4 °F 31.4 °F 10.4 °F 33% 29.76 in 5.0 mi North 8.1 mph - N/A   Clear
12:56 PM 37.4 °F - 10.4 °F 33% 29.76 in 10.0 mi Calm Calm - N/A   Clear
1:16 PM 37.4 °F - 10.4 °F 33% 29.75 in 10.0 mi Calm Calm - N/A   Clear
1:36 PM 37.4 °F 34.9 °F 8.6 °F 30% 29.75 in 10.0 mi NNW 3.5 mph - N/A   Clear
1:56 PM 39.2 °F 35.0 °F 10.4 °F 31% 29.75 in 10.0 mi NE 5.8 mph - N/A   Clear
2:16 PM 39.2 °F 35.9 °F 10.4 °F 31% 29.75 in 10.0 mi ESE 4.6 mph - N/A   Clear
2:36 PM 39.2 °F 35.9 °F 10.4 °F 31% 29.75 in 10.0 mi East 4.6 mph - N/A   Clear
2:56 PM 39.2 °F 32.5 °F 10.4 °F 31% 29.74 in 10.0 mi WNW 10.4 mph - N/A   Clear
3:16 PM 39.2 °F 35.0 °F 12.2 °F 33% 29.74 in 10.0 mi NNW 5.8 mph - N/A   Clear
3:36 PM 39.2 °F 35.0 °F 10.4 °F 31% 29.74 in 10.0 mi NE 5.8 mph - N/A   Clear
3:56 PM 41.0 °F - 10.4 °F 29% 29.74 in 10.0 mi Calm Calm - N/A   Clear
4:16 PM 41.0 °F 33.9 °F 15.8 °F 36% 29.73 in 10.0 mi WNW 12.7 mph - N/A   Clear
4:36 PM 41.0 °F 33.1 °F 15.8 °F 36% 29.73 in 10.0 mi WNW 15.0 mph 19.6 mph N/A   Clear
4:56 PM 41.0 °F 33.5 °F 14.0 °F 33% 29.73 in 10.0 mi WNW 13.8 mph - N/A   Clear
5:16 PM 41.0 °F 32.8 °F 14.0 °F 33% 29.73 in 10.0 mi West 16.1 mph - N/A   Clear
5:36 PM 39.2 °F 29.8 °F 15.8 °F 39% 29.72 in 10.0 mi West 18.4 mph 23.0 mph N/A   Clear
5:56 PM 39.2 °F 30.8 °F 14.0 °F 36% 29.73 in 10.0 mi WNW 15.0 mph - N/A   Clear
6:16 PM 41.0 °F 32.8 °F 15.8 °F 36% 29.72 in 10.0 mi West 16.1 mph - N/A   Clear
6:36 PM 39.2 °F 31.6 °F 14.0 °F 36% 29.73 in 10.0 mi WNW 12.7 mph - N/A   Clear
6:56 PM 39.2 °F 31.6 °F 14.0 °F 36% 29.73 in 10.0 mi WNW 12.7 mph - N/A   Clear
7:16 PM 39.2 °F 32.0 °F 12.2 °F 33% 29.73 in 10.0 mi WNW 11.5 mph - N/A   Clear
7:36 PM 39.2 °F 31.2 °F 12.2 °F 33% 29.73 in 10.0 mi West 13.8 mph - N/A   Clear
7:56 PM 39.2 °F 32.0 °F 12.2 °F 33% 29.73 in 10.0 mi West 11.5 mph - N/A   Clear
8:16 PM 39.2 °F 31.6 °F 10.4 °F 31% 29.73 in 10.0 mi West 12.7 mph - N/A   Clear
8:36 PM 37.4 °F 29.3 °F 12.2 °F 36% 29.73 in 10.0 mi West 12.7 mph - N/A   Clear
8:56 PM 37.4 °F 29.8 °F 12.2 °F 36% 29.74 in 10.0 mi West 11.5 mph - N/A   Clear
9:16 PM 37.4 °F 30.3 °F 12.2 °F 36% 29.74 in 10.0 mi West 10.4 mph - N/A   Clear
9:36 PM 37.4 °F 31.4 °F 12.2 °F 36% 29.74 in 10.0 mi WNW 8.1 mph - N/A   Clear
9:56 PM 35.6 °F 31.7 °F 12.2 °F 38% 29.74 in 10.0 mi West 4.6 mph - N/A   Clear
10:16 PM 33.8 °F 29.6 °F 12.2 °F 41% 29.75 in 10.0 mi West 4.6 mph - N/A   Clear
10:36 PM 33.8 °F 30.8 °F 14.0 °F 44% 29.75 in 10.0 mi West 3.5 mph - N/A   Clear
10:56 PM 30.2 °F - 12.2 °F 47% 29.75 in - Calm Calm - N/A   Clear
11:16 PM 28.4 °F - 14.0 °F 55% 29.76 in - Calm Calm - N/A   Clear
11:36 PM 26.6 °F - 15.8 °F 64% 29.75 in 10.0 mi Calm Calm - N/A   Clear
11:56 PM 26.6 °F - 15.8 °F 64% 29.75 in 10.0 mi Calm Calm - N/A   Clear